When you browse on this site, cookies collect data to enhance your experience and personalize the content and advertising you see.
Visit our Privacy Policy to learn more. By continuing to use the site, you agree to this use of cookies and data.
  • In Österreich
  • Länderverzeichnis
  • Für 7 Tage
  • Wassertemperatur
  • Satellitenkarten
  • Wetterkarte
  • News
  • Widgets
  • user-avatar
    Anmelden

    Stündliche Wetter Djibouti

    Heute, 19 Januar, Samstag

    Zeit Temperatur Niederschläge Wind Luftdruck Luftfeuchtigkeit
    00:00 +27°C° 0 mm 2 m/S 759 mmHg 73%
    01:00 +27°C° 0 mm 2 m/S 759 mmHg 75%
    02:00 +27°C° 0 mm 1 m/S 759 mmHg 76%
    03:00 +26°C° 0 mm 1 m/S 759 mmHg 78%
    04:00 +26°C° 0 mm 1 m/S 760 mmHg 79%
    05:00 +24°C° 0 mm 0 m/S 760 mmHg 81%
    06:00 +24°C° 0 mm 0 m/S 760 mmHg 83%
    07:00 +24°C° 0 mm 0 m/S 760 mmHg 79%
    08:00 +27°C° 0 mm 1 m/S 761 mmHg 76%
    09:00 +28°C° 0 mm 1 m/S 761 mmHg 72%
    10:00 +29°C° 0 mm 2 m/S 761 mmHg 66%
    11:00 +29°C° 0 mm 2 m/S 761 mmHg 61%
    12:00 +30°C° 0 mm 3 m/S 760 mmHg 56%
    13:00 +31°C° 0 mm 3 m/S 760 mmHg 55%
    14:00 +32°C° 0 mm 4 m/S 759 mmHg 53%
    15:00 +32°C° 0 mm 4 m/S 758 mmHg 53%
    16:00 +30°C° 0 mm 4 m/S 759 mmHg 56%
    17:00 +29°C° 0 mm 4 m/S 759 mmHg 60%
    18:00 +29°C° 0 mm 4 m/S 759 mmHg 63%
    19:00 +28°C° 0 mm 3 m/S 759 mmHg 64%
    20:00 +28°C° 0 mm 3 m/S 760 mmHg 65%
    21:00 +27°C° 0 mm 3 m/S 760 mmHg 66%
    22:00 +27°C° 0 mm 2 m/S 760 mmHg 67%
    23:00 +27°C° 0 mm 2 m/S 760 mmHg 68%

    Morgen, 20 Januar, Sonntag

    Zeit Temperatur Niederschläge Wind Luftdruck Luftfeuchtigkeit
    00:00 +27°C° 0 mm 2 m/S 760 mmHg 69%
    01:00 +26°C° 0 mm 2 m/S 760 mmHg 71%
    02:00 +26°C° 0 mm 2 m/S 760 mmHg 72%
    03:00 +26°C° 0 mm 1 m/S 760 mmHg 74%
    04:00 +26°C° 0 mm 1 m/S 760 mmHg 75%
    05:00 +25°C° 0 mm 1 m/S 760 mmHg 76%
    06:00 +25°C° 0 mm 1 m/S 761 mmHg 78%
    07:00 +26°C° 0 mm 1 m/S 761 mmHg 74%
    08:00 +26°C° 0 mm 1 m/S 762 mmHg 71%
    09:00 +27°C° 0 mm 2 m/S 762 mmHg 67%
    10:00 +28°C° 0 mm 2 m/S 762 mmHg 62%
    11:00 +29°C° 0 mm 3 m/S 762 mmHg 58%
    12:00 +30°C° 0 mm 3 m/S 761 mmHg 53%
    13:00 +32°C° 0 mm 4 m/S 761 mmHg 52%
    14:00 +32°C° 0 mm 4 m/S 760 mmHg 50%
    15:00 +32°C° 0 mm 5 m/S 760 mmHg 49%
    16:00 +30°C° 0 mm 4 m/S 760 mmHg 53%
    17:00 +30°C° 0 mm 4 m/S 760 mmHg 56%
    18:00 +29°C° 0 mm 4 m/S 760 mmHg 60%
    19:00 +28°C° 0 mm 4 m/S 760 mmHg 62%
    20:00 +28°C° 0 mm 3 m/S 761 mmHg 65%
    21:00 +27°C° 0 mm 3 m/S 761 mmHg 68%
    22:00 +27°C° 0 mm 3 m/S 761 mmHg 69%
    23:00 +27°C° 0 mm 3 m/S 761 mmHg 70%

    übermorgen, 21 Januar, Montag

    Zeit Temperatur Niederschläge Wind Luftdruck Luftfeuchtigkeit
    00:00 +27°C° 0 mm 3 m/S 761 mmHg 71%
    01:00 +26°C° 0 mm 2 m/S 761 mmHg 73%
    02:00 +26°C° 0 mm 2 m/S 761 mmHg 74%
    03:00 +26°C° 0 mm 2 m/S 760 mmHg 75%
    04:00 +26°C° 0 mm 2 m/S 761 mmHg 76%
    05:00 +26°C° 0 mm 2 m/S 761 mmHg 76%
    06:00 +26°C° 0 mm 2 m/S 761 mmHg 76%
    07:00 +26°C° 0 mm 2 m/S 762 mmHg 72%
    08:00 +27°C° 0 mm 2 m/S 762 mmHg 68%
    09:00 +28°C° 0 mm 3 m/S 763 mmHg 64%
    10:00 +29°C° 0 mm 3 m/S 762 mmHg 60%
    11:00 +30°C° 0 mm 3 m/S 762 mmHg 55%
    12:00 +31°C° 0 mm 3 m/S 761 mmHg 50%
    13:00 +31°C° 0 mm 3 m/S 761 mmHg 49%
    14:00 +33°C° 0 mm 4 m/S 760 mmHg 49%
    15:00 +33°C° 0 mm 4 m/S 759 mmHg 48%
    16:00 +32°C° 0 mm 4 m/S 759 mmHg 53%
    17:00 +30°C° 0 mm 4 m/S 759 mmHg 58%
    18:00 +29°C° 0 mm 4 m/S 759 mmHg 64%
    19:00 +28°C° 0 mm 4 m/S 760 mmHg 67%
    20:00 +28°C° 0 mm 3 m/S 760 mmHg 69%
    21:00 +28°C° 0 mm 3 m/S 761 mmHg 72%
    22:00 +28°C° 0 mm 3 m/S 760 mmHg 73%
    23:00 +27°C° 0 mm 3 m/S 760 mmHg 74%

    22 Januar, Dienstag

    Zeit Temperatur Niederschläge Wind Luftdruck Luftfeuchtigkeit
    00:00 +27°C° 0 mm 3 m/S 760 mmHg 75%
    01:00 +27°C° 0.1 mm 2 m/S 760 mmHg 76%
    02:00 +27°C° 0.1 mm 2 m/S 759 mmHg 77%
    03:00 +27°C° 0.1 mm 2 m/S 759 mmHg 78%
    04:00 +27°C° 0.1 mm 2 m/S 759 mmHg 78%
    05:00 +27°C° 0.1 mm 1 m/S 760 mmHg 79%
    06:00 +26°C° 0.1 mm 1 m/S 760 mmHg 80%
    07:00 +27°C° 0 mm 1 m/S 760 mmHg 77%
    08:00 +28°C° 0 mm 2 m/S 761 mmHg 74%
    09:00 +28°C° 0 mm 2 m/S 761 mmHg 71%
    10:00 +29°C° 0 mm 2 m/S 761 mmHg 67%
    11:00 +30°C° 0 mm 3 m/S 761 mmHg 63%
    12:00 +32°C° 0 mm 4 m/S 760 mmHg 58%
    13:00 +32°C° 0 mm 4 m/S 759 mmHg 58%
    14:00 +32°C° 0 mm 5 m/S 758 mmHg 57%
    15:00 +33°C° 0 mm 5 m/S 757 mmHg 57%
    16:00 +32°C° 0 mm 5 m/S 758 mmHg 61%
    17:00 +30°C° 0 mm 5 m/S 758 mmHg 65%
    18:00 +29°C° 0 mm 5 m/S 758 mmHg 69%
    19:00 +29°C° 0 mm 4 m/S 758 mmHg 70%
    20:00 +28°C° 0 mm 4 m/S 759 mmHg 72%
    21:00 +28°C° 0 mm 4 m/S 760 mmHg 74%
    22:00 +28°C° 0 mm 4 m/S 759 mmHg 75%
    23:00 +28°C° 0 mm 3 m/S 759 mmHg 75%

    23 Januar, Mittwoch

    Zeit Temperatur Niederschläge Wind Luftdruck Luftfeuchtigkeit
    00:00 +27°C° 0 mm 3 m/S 759 mmHg 76%
    01:00 +27°C° 0.1 mm 3 m/S 759 mmHg 76%
    02:00 +27°C° 0.1 mm 3 m/S 758 mmHg 77%
    03:00 +27°C° 0.1 mm 3 m/S 758 mmHg 77%
    04:00 +27°C° 0.1 mm 3 m/S 758 mmHg 78%
    05:00 +27°C° 0.1 mm 3 m/S 759 mmHg 79%
    06:00 +26°C° 0.1 mm 3 m/S 759 mmHg 79%
    07:00 +27°C° 0.1 mm 3 m/S 760 mmHg 77%
    08:00 +27°C° 0.1 mm 3 m/S 760 mmHg 74%
    09:00 +28°C° 0.1 mm 4 m/S 761 mmHg 72%
    10:00 +28°C° 0.1 mm 4 m/S 760 mmHg 68%
    11:00 +29°C° 0.1 mm 5 m/S 760 mmHg 64%
    12:00 +30°C° 0.1 mm 5 m/S 759 mmHg 60%
    13:00 +30°C° 0 mm 5 m/S 759 mmHg 58%
    14:00 +32°C° 0 mm 6 m/S 758 mmHg 56%
    15:00 +32°C° 0 mm 6 m/S 757 mmHg 54%
    16:00 +30°C° 0 mm 6 m/S 758 mmHg 58%
    17:00 +29°C° 0 mm 5 m/S 758 mmHg 63%
    18:00 +28°C° 0 mm 5 m/S 758 mmHg 67%
    19:00 +28°C° 0 mm 4 m/S 759 mmHg 70%
    20:00 +28°C° 0 mm 4 m/S 760 mmHg 72%
    21:00 +27°C° 0 mm 4 m/S 760 mmHg 74%
    22:00 +27°C° 0 mm 3 m/S 760 mmHg 74%
    23:00 +27°C° 0 mm 3 m/S 760 mmHg 74%

    24 Januar, Donnerstag

    Zeit Temperatur Niederschläge Wind Luftdruck Luftfeuchtigkeit
    00:00 +27°C° 0 mm 3 m/S 760 mmHg 74%
    01:00 +27°C° 0.1 mm 3 m/S 760 mmHg 74%
    02:00 +27°C° 0.1 mm 3 m/S 759 mmHg 74%
    03:00 +27°C° 0.1 mm 3 m/S 759 mmHg 74%
    04:00 +27°C° 0 mm 3 m/S 759 mmHg 74%
    05:00 +27°C° 0 mm 3 m/S 760 mmHg 74%
    06:00 +27°C° 0 mm 3 m/S 760 mmHg 73%
    07:00 +27°C° 0 mm 4 m/S 761 mmHg 71%
    08:00 +27°C° 0 mm 4 m/S 761 mmHg 68%
    09:00 +28°C° 0 mm 4 m/S 762 mmHg 65%
    10:00 +29°C° 0 mm 4 m/S 761 mmHg 62%
    11:00 +29°C° 0 mm 4 m/S 761 mmHg 59%
    12:00 +30°C° 0 mm 5 m/S 760 mmHg 56%
    13:00 +30°C° 0 mm 5 m/S 759 mmHg 55%
    14:00 +30°C° 0 mm 5 m/S 759 mmHg 53%
    15:00 +32°C° 0 mm 5 m/S 758 mmHg 52%
    16:00 +30°C° 0 mm 5 m/S 758 mmHg 57%
    17:00 +29°C° 0 mm 5 m/S 758 mmHg 62%
    18:00 +28°C° 0 mm 5 m/S 759 mmHg 67%
    19:00 +28°C° 0 mm 4 m/S 759 mmHg 69%
    20:00 +28°C° 0 mm 4 m/S 760 mmHg 71%
    21:00 +27°C° 0 mm 4 m/S 760 mmHg 73%
    22:00 +27°C° 0 mm 4 m/S 760 mmHg 73%
    23:00 +27°C° 0 mm 4 m/S 760 mmHg 74%
    Mehr zeigen